DECAYED
Showing default

FLOCK 4V 13, 46297 (Decayed)

Orbit data source: Space-Track

FLOCK 4V 13, 46297 was a payload satellite owned by Planet (US) in LEO that was launched on Thu, 03 Sep 2020 UTC via a VEGA launch vehicle from the French Guiana (FRGUI). Payload-class satellites include a variety of spacecraft equipped with specific instruments for various scientific and technological missions. These include communications satellites like Starlink; space stations such as the ISS; scientific satellites like the Hubble; Earth observation satellites from companies like Planet Labs, Umbra, and HawkEye 360; GPS; miniature CubeSats for education and research; and military/defense satellites.

Not visible in the next 10 days
Identifier
46297, 2020-061AB
Orbit
Decayed
Last TLE update
7 months ago
Origin
Manufacturer
Planet
Mission
Decayed Commercial Imaging
Bus & Motor
CUBESAT 3U, Unknown motor
Mass
5.7 kg wet, 5.7 kg dry
Launch date (UTC)
2020-09-03 (5 years ago)
Launch vehicle
VEGA
Launch site
French Guiana (FRGUI)
Object type
Payload
Rocket body
Debris
Shape & HBR
Box + 2 Pan, 0.3 m
Radar Cross Section
0.108 m², Medium (>0.1 m² and < 1m²)

Expand to show TLE details & history

TLE from 7 months ago
0 FLOCK 4V 13
1 46297U 20061AB  24329.45292653  .17114732  24962-5  53868-3 0  9990
2 46297  97.2954  47.8657 0013161 277.7576  82.2231 16.43721337234842
Epoch: 2024-11-24T10:52Z
TLE epoch observation values (Epoch: 2024-11-24T10:52:12.852Z)
Latitude
-0.00003°
Longitude
-179.07924°
Altitude
158.028 km
Speed
7.812 km/s
True Right ascension
03h 11m 27s
True Declination
0° 00' 00"
Sunlit
Object was in full shadow at epoch
Visualization orbit readout
Visualization observer readout
Orbital elements
Apogee altitude
161.315 km
Perigee altitude
144.125 km
Semi-major axis
6,530.857 km
Eccentricity
0.00132
Inclination
97.2954°
RAAN
47.8657°
Arg. of periapsis
277.7576°
True anomaly
Unknown
Mean anomaly
82.2231°
Eccentric anomaly
Unknown
Mean motion
4.11233 °/min
Orbital period
87.54 mins
BSTAR
0.00053868
Loading maneuver chart data...
Loading SW <> Apogee altitude chart data...

FLOCK 4V 13 Visibility

Observer location: undefined°, undefined°

This satellite is decayed
Span
Click to sort rows by Start time (UTC) header in descending order
Start Az.
Max El. time (UTC)
Max El. Az.
Max El.
End time (UTC)
End Az.
|